Location: Middle Street
(51.7167°N, 0.0333°E)
Time: 20:02:12
(UTC+00:00)

CORIOLIS - Pass Details

Date: 20 January 2021
Orbit: 818 x 839 km, 98.7° (Epoch: 27 February)

Event Time Altitude Azimuth Distance (km) Brightness Sun altitude
Rises 17:13:55 0° 160° (SSE) 3,367 7.4 -7.1°
Reaches altitude 10° 17:16:15 10° 160° (SSE) 2,434 6.7 -7.5°
Maximum altitude 17:21:40 85° 73° (ENE) 838 4.2 -8.2°
Drops below altitude 10° 17:27:04 10° 345° (NNW) 2,437 6.5 -9.0°
Sets 17:29:26 0° 346° (NNW) 3,372 7.3 -9.4°
